Vorticity
nan nan nan nan nan nan nan nan nan nan nan nan nan nan nan nan nan nan nan nan nan nan nan nan nan nan nan nan nan nan nan nan nan nan nan nan nan nan nan nan nan nan nan nan nan nan nan
nan 7 9 5 4 6 6 7 7 4 5 6 8 6 6 6 7 8 8 7 8 7 6 6 9 13 10 3 11 6 -0 1 11 11 8 8 8 8 8 6 6 8 7 7 7 9 nan
nan 7 9 9 8 7 8 10 8 4 5 6 7 9 8 7 8 8 7 7 7 7 7 9 17 14 11 6 3 6 4 1 5 8 9 10 6 8 6 7 11 9 9 11 10 7 nan
nan 6 4 5 9 10 7 6 8 6 5 6 7 8 8 8 7 8 7 8 7 7 12 18 20 10 5 17 11 11 6 10 11 7 6 6 10 10 7 10 12 11 11 6 12 17 nan
nan 8 8 7 6 8 6 4 5 5 5 7 8 7 7 7 7 7 7 6 11 17 18 20 13 4 5 12 15 17 16 13 6 14 13 11 13 13 12 7 10 9 12 9 5 11 nan
nan 7 10 8 6 7 8 6 4 5 6 7 7 8 8 7 7 7 10 16 22 23 18 4 4 6 -1 -3 10 14 15 14 9 10 14 12 10 11 9 7 6 7 5 2 13 12 nan
nan 6 8 8 7 11 8 6 6 9 7 6 6 8 8 8 7 7 12 29 27 10 1 1 5 -2 -5 4 5 9 10 4 10 4 15 10 6 9 7 1 -1 1 2 8 12 11 nan
nan 7 7 9 9 8 6 6 5 9 8 6 8 8 8 8 7 12 15 16 7 7 9 16 14 9 15 7 3 8 13 12 9 4 10 11 7 6 7 10 6 5 4 5 5 13 nan
nan 8 6 7 9 7 7 8 7 6 7 6 9 8 8 7 12 17 11 8 6 10 11 19 22 18 22 23 19 10 3 11 11 10 10 9 9 13 9 8 10 9 8 5 6 4 nan
nan 9 7 7 8 12 12 11 7 4 7 9 9 8 7 12 13 10 13 4 6 12 16 17 11 14 12 9 20 26 7 3 4 11 14 20 12 9 12 7 9 8 8 4 7 4 nan
nan 9 8 8 8 10 12 12 8 7 7 8 8 8 9 6 10 7 7 8 12 9 10 11 7 6 9 2 9 29 17 3 2 6 2 9 12 9 11 10 5 6 8 11 11 6 nan
nan 9 8 9 9 7 8 8 9 9 8 5 7 8 11 14 9 7 3 10 15 9 14 7 6 6 6 4 5 12 16 -2 8 11 3 -2 1 11 15 13 8 9 13 10 13 13 nan
nan 9 10 9 7 6 8 10 13 10 6 8 7 9 8 10 9 8 11 13 11 6 10 7 2 1 2 10 19 14 13 11 -1 9 14 14 17 6 13 22 12 9 8 11 12 11 nan
nan 9 10 8 7 9 11 15 13 10 8 9 8 11 11 8 7 7 13 13 5 10 2 -1 2 5 10 19 18 15 5 11 7 -6 8 19 17 12 15 18 10 16 1 -1 6 10 nan
nan 10 12 12 12 10 7 11 12 8 9 8 9 12 10 10 10 10 13 7 4 5 7 6 7 12 15 12 11 15 12 10 14 7 2 5 7 6 11 17 12 8 4 -2 1 8 nan
nan 10 11 11 10 12 12 11 10 9 11 8 8 14 14 15 13 7 9 7 2 2 9 10 7 9 9 4 12 14 9 8 13 20 9 -2 11 18 14 9 8 9 16 12 5 4 nan
nan 10 11 11 9 7 9 12 13 12 10 8 8 11 23 19 5 8 11 10 2 5 7 4 6 4 4 3 8 10 12 4 5 8 23 21 7 14 19 9 9 7 8 10 11 6 nan
nan 11 11 11 11 11 11 10 10 16 10 6 9 7 15 15 6 6 11 7 0 12 9 4 4 4 7 7 10 9 7 5 6 7 24 22 11 10 24 17 4 7 9 4 8 11 nan
nan 11 11 11 13 13 10 13 14 14 4 3 11 11 9 8 7 5 7 9 11 7 6 12 9 5 5 8 9 12 7 4 -2 7 11 19 15 8 6 21 27 11 4 5 3 9 nan
nan 12 12 9 10 12 7 10 15 13 7 3 9 13 10 7 4 11 13 13 12 7 7 6 10 14 12 10 4 4 6 6 3 3 7 17 16 13 4 13 17 15 15 14 7 6 nan
nan 13 14 11 10 8 14 12 9 11 8 5 8 10 11 9 11 10 5 11 16 9 10 11 7 9 9 4 8 5 4 8 11 7 6 14 14 15 14 5 13 15 16 14 8 7 nan
nan 10 13 14 12 11 13 12 13 13 8 4 7 7 6 10 14 17 12 3 9 6 9 11 7 12 7 9 10 11 10 8 9 5 5 12 12 17 22 9 9 13 8 7 9 12 nan
nan 11 11 11 12 11 12 9 13 13 6 1 8 7 9 16 14 8 11 16 8 7 8 11 9 11 14 12 9 13 15 10 4 3 10 9 3 15 16 8 12 18 17 11 14 15 nan
nan 11 11 12 11 11 9 8 13 14 1 -0 8 11 10 8 10 10 12 10 9 10 8 10 18 14 13 12 16 15 12 13 11 8 4 6 9 5 6 14 14 6 22 18 9 14 nan
nan 14 16 16 13 14 12 10 10 13 3 2 5 8 9 13 12 8 8 6 10 10 14 10 14 13 12 12 17 17 16 16 19 19 12 4 3 7 8 8 10 10 17 21 11 3 nan
nan 14 19 19 17 16 15 12 11 10 4 2 9 6 5 14 15 15 12 10 6 7 13 16 14 8 9 13 13 13 14 15 14 23 19 9 4 5 7 8 8 20 15 -2 4 12 nan
nan 14 13 15 20 16 17 17 13 11 4 0 11 9 2 9 6 9 14 13 11 9 12 23 10 4 5 10 12 12 11 11 14 16 16 11 11 9 3 4 10 13 0 16 18 2 nan
nan 12 12 12 12 18 18 17 17 15 6 -0 6 13 5 5 15 11 5 5 11 14 12 13 7 10 8 9 10 12 11 11 9 13 16 10 8 12 12 11 8 12 17 9 14 10 nan
nan nan nan nan nan nan nan nan nan nan nan nan nan nan nan nan nan nan nan nan nan nan nan nan nan nan nan nan nan nan nan nan nan nan nan nan nan nan nan nan nan nan nan nan nan nan nan
CAPE
14 13 11 12 10 3 13 5 8 9 13 13 25 12 11 1 6 10 19 14 8 0 0 0 0 1 0 0 0 0 0 0 0 0 0 0 0 0 0 0 0 0 0 0 0 0 0
13 17 12 10 15 22 20 20 16 17 19 25 36 24 4 8 4 3 13 4 1 0 0 1 4 2 0 0 0 0 0 0 0 0 0 0 0 0 0 0 0 0 0 0 0 0 0
26 19 22 28 13 26 26 30 21 12 11 20 18 35 21 18 9 2 1 0 0 0 1 1 3 1 0 0 0 0 0 0 0 0 0 0 0 0 0 0 0 0 0 0 0 0 0
26 22 20 14 21 28 27 22 29 11 7 15 13 24 43 28 8 5 0 0 0 0 1 0 0 0 0 0 0 0 0 0 0 0 0 0 0 0 0 0 0 0 0 0 0 0 0
30 24 22 24 19 26 23 19 15 16 15 16 17 25 36 31 14 0 0 0 0 0 0 0 0 0 0 0 0 0 0 0 0 0 0 0 0 0 0 0 0 0 0 0 0 0 0
24 34 43 30 21 22 32 12 23 28 24 15 22 28 35 40 17 0 0 0 0 0 0 0 0 0 0 0 0 0 0 0 0 0 0 0 0 0 0 0 0 0 0 0 0 2 0
26 17 29 34 20 25 39 10 23 47 20 24 19 18 34 36 20 0 0 0 0 0 0 0 0 0 0 0 0 0 0 0 0 0 0 0 0 0 0 0 0 0 4 3 7 1 0
36 26 36 43 40 39 38 25 43 40 24 17 32 34 26 35 9 0 1 3 2 2 2 0 0 0 0 0 0 0 0 0 0 1 0 0 0 0 0 0 0 0 0 0 0 0 0
34 41 31 31 36 33 25 32 38 38 38 39 36 40 32 27 0 0 18 14 19 22 1 0 0 0 0 0 0 0 0 17 9 5 8 0 0 0 0 1 3 0 0 0 0 1 0
42 39 34 31 38 41 49 44 26 40 52 53 46 41 75 5 0 19 5 15 25 26 3 0 0 0 0 0 0 0 0 1 0 4 2 6 0 0 0 0 3 0 0 0 0 0 0
47 45 44 48 49 41 40 56 29 33 42 48 51 48 67 13 4 4 18 19 20 24 0 0 0 0 0 0 0 0 0 22 3 0 0 2 9 0 1 1 1 0 0 0 0 0 0
44 45 49 58 49 71 78 93 87 56 48 34 47 49 41 13 15 12 33 35 29 53 0 0 0 0 0 0 0 0 0 0 5 16 7 3 0 2 0 0 1 0 4 1 0 0 2
47 40 50 49 55 83 53 72 76 51 35 36 50 51 28 25 26 56 47 26 34 1 0 0 0 0 0 0 0 0 0 0 2 24 21 2 0 0 0 0 0 0 6 13 8 4 0
42 46 56 59 59 55 54 56 66 48 65 43 58 52 27 29 15 37 66 70 10 0 0 0 0 0 0 0 36 4 2 0 4 0 8 29 0 0 0 1 0 2 5 7 16 23 9
43 41 45 65 54 48 57 34 47 73 73 57 53 33 41 40 49 70 84 65 0 0 0 0 0 0 0 22 1 52 8 6 0 0 8 8 0 0 0 1 0 1 2 0 0 12 62
38 43 45 68 73 67 74 90 58 46 43 64 62 47 42 68 74 108 72 7 0 0 0 1 0 0 0 43 49 56 30 0 0 0 2 0 10 0 0 2 1 1 2 0 3 17 33
34 39 52 60 51 18 66 79 68 67 28 68 61 55 30 57 113 78 59 17 3 0 0 3 2 15 14 26 46 30 43 12 0 0 0 0 5 0 9 9 5 0 2 9 6 22 28
51 52 59 60 83 97 78 6 80 50 87 49 66 81 81 112 79 71 35 29 17 8 9 2 1 13 32 45 52 10 68 1 0 0 0 0 5 12 21 23 0 1 10 24 44 18 40
76 81 62 79 122 177 122 101 71 54 56 83 58 67 101 162 78 85 47 30 27 19 17 37 31 16 40 45 42 29 37 8 0 0 0 0 27 1 3 13 11 9 9 18 19 9 2
73 75 77 90 43 19 128 7 64 94 58 126 119 86 65 173 80 54 57 55 31 37 26 45 59 62 73 74 94 31 10 0 0 0 9 2 28 24 27 10 9 21 17 23 36 81 15
58 74 70 73 101 98 139 55 72 93 76 147 101 76 36 64 79 62 64 42 35 40 34 35 69 76 56 54 66 54 33 18 3 0 0 9 39 42 15 26 34 1 1 11 21 25 18
55 66 79 47 68 95 118 62 126 75 67 186 91 67 69 63 56 57 64 56 47 46 42 54 76 61 80 80 86 64 29 26 17 3 5 7 16 19 44 25 34 38 14 0 0 1 7
64 99 95 65 60 73 79 44 101 75 65 117 91 81 112 28 68 75 65 54 38 56 32 51 98 103 94 85 101 117 81 42 26 5 2 1 11 29 66 8 10 9 12 16 10 10 28
57 51 59 69 70 62 65 101 108 108 77 149 113 109 92 39 47 64 22 74 56 44 78 43 160 107 129 121 113 86 41 25 23 8 2 0 8 5 22 21 2 44 7 2 16 5 4
68 32 47 89 89 107 102 90 105 119 113 194 107 151 110 71 62 33 50 51 50 53 75 169 144 110 142 98 98 57 47 23 24 6 6 0 9 31 4 19 4 0 0 22 51 3 0
73 48 70 63 33 101 83 77 92 102 134 144 183 162 143 188 61 55 55 50 56 72 153 112 140 40 0 98 192 90 67 35 34 23 1 4 1 54 64 20 9 0 3 0 0 1 0
84 92 77 74 59 38 56 63 76 87 111 152 31 166 116 107 6 101 101 82 59 56 92 178 116 50 16 80 146 97 91 45 53 51 7 22 21 11 28 41 16 43 36 26 32 10 10
89 82 69 56 46 49 50 55 76 77 72 187 61 132 101 64 15 21 68 84 91 43 251 160 49 47 29 194 124 90 69 69 41 63 19 20 36 33 29 30 17 69 13 60 44 34 26
55 58 60 47 45 35 37 46 53 57 37 94 87 149 156 84 51 123 26 50 129 19 50 34 36 33 75 71 157 92 75 62 48 46 70 49 11 66 5 22 104 124 68 6 17 12 1